Content
SEND FEEDBACK

Daily
Averages
Monthly
Summary
United States of America

BREWTON, ALABAMA


Home > North America > United States > Alabama
Elevation: 65 feet     Latitude: 31 04N     Longitude: 087 03W

WEATHER
 
SELECT A DAY
Number of Records: 80,140;   Date Range: 5/17/05 - 7/20/14
 
SHARE

PRINT THIS DATA

[ ← Previous Day ]
WEATHER ALMANAC - FEBRUARY 13, 2013
[ Next Day → ]
[ °C ]   °F
Weather ElementAverageHighLow
Temperature57.2 °F69.8 °F (1:12 am)46.9 °F (11:56 pm)
Dewpoint52 °F66.2 °F (1:12 am)41 °F (11:56 pm)
Humidity82.9 %93 % (7:56 pm)62 % (9:56 am)
Barometer29.89 in30.02 in (9:56 pm)29.75 in (1:56 am)
Wind Speed6.6 mph15 mph (3:13 pm)
Wind Gust25.3 mph (4:19 am)
Weather ElementAverage
Visibility9.5 mi
Wind DirectionWSW (231.8 °)

Weather ElementTotal
Precipitation0.38 in
Heating Degree Days6.7 (Base 65)
Growing Degree Days8.3 (Base 50)
Averaged from 40 records on February 13, 2013
WEATHER CONDITIONS BREAKOUT
WIND DIRECTION BREAKOUT
WEATHER BY HOUR - FEBRUARY 13, 2013
[ °C ]   °F
Local TimeTemperatureDewpointHumidityBarometerVisibilityWind DirectionWind SpeedGust SpeedPrecipitationEventsConditions
1:12 AM69.8 °F66.2 °F88 %29.79 in10.0 miVariable5.8 mphMostly Cloudy
1:25 AM69.8 °F66.2 °F88 %29.78 in10.0 miVariable4.6 mphScattered Clouds
1:56 AM69.1 °F66.0 °F90 %29.75 in10.0 miVariable4.6 mphScattered Clouds
2:18 AM69.8 °F66.2 °F88 %29.78 in10.0 miSW (220°)4.6 mphMostly Cloudy
2:38 AM69.8 °F66.2 °F88 %29.80 in10.0 miWSW (250°)5.8 mphOvercast
2:56 AM69.1 °F64.9 °F87 %29.76 in10.0 miWSW (240°)8.1 mphOvercast
3:04 AM69.8 °F64.4 °F83 %29.80 in10.0 miVariable5.8 mphOvercast
3:52 AM68.0 °F64.4 °F88 %29.81 in10.0 miVariable3.5 mphPartly Cloudy
3:56 AM68.0 °F64.0 °F87 %29.77 in10.0 miWSW (250°)5.8 mphPartly Cloudy
4:19 AM66.2 °F62.6 °F88 %29.82 in10.0 miNW (310°)11.5 mph25.3 mphMostly Cloudy
4:38 AM64.4 °F60.8 °F88 %29.84 in10.0 miNW (310°)9.2 mphScattered Clouds
4:56 AM62.1 °F57.9 °F86 %29.80 in10.0 miWNW (300°)6.9 mphClear
5:56 AM59.0 °F55.0 °F87 %29.83 in10.0 miWNW (300°)5.8 mphClear
6:56 AM57.0 °F51.1 °F81 %29.84 in10.0 miNW (310°)4.6 mphClear
7:56 AM59.0 °F51.1 °F75 %29.86 in10.0 miWNW (300°)9.2 mphClear
8:56 AM59.0 °F48.9 °F69 %29.86 in2.0 miNW (320°)10.4 mphHaze
9:03 AM60.8 °F48.2 °F63 %29.90 in1.8 miNW (320°)9.2 mph18.4 mphHaze
9:12 AM62.6 °F50.0 °F63 %29.89 inNW (320°)11.5 mph
9:56 AM61.0 °F48.0 °F62 %29.88 in10.0 miNW (310°)11.5 mphClear
10:56 AM57.9 °F46.9 °F67 %29.91 in10.0 miNW (320°)11.5 mphOvercast
11:56 AM55.0 °F46.0 °F72 %29.91 in10.0 miNW (310°)9.2 mph0.00 inRainLight Rain
12:52 PM53.6 °F48.2 °F82 %29.92 in10.0 miNNW (330°)4.6 mph0.01 inRainLight Rain
12:56 PM54.0 °F48.9 °F83 %29.88 in10.0 miNW (320°)5.8 mph0.01 inRainLight Rain
1:56 PM54.0 °F48.0 °F80 %29.90 in10.0 miNNW (330°)9.2 mph0.00 inRainLight Rain
2:28 PM51.8 °F46.4 °F82 %29.94 in10.0 miNW (320°)11.5 mph16.1 mph0.01 inOvercast
2:34 PM51.8 °F46.4 °F82 %29.91 in10.0 miNW (320°)5.8 mph0.01 inRainLight Rain
2:56 PM51.1 °F46.9 °F86 %29.91 in10.0 miWNW (300°)5.8 mph0.02 inRainLight Rain
3:13 PM50.0 °F46.4 °F87 %29.96 in7.0 miNNW (330°)15.0 mph20.7 mph0.04 inRainRain
3:43 PM48.2 °F44.6 °F87 %29.94 in9.0 miNNW (330°)9.2 mph18.4 mph0.09 inRainRain
3:56 PM48.0 °F44.1 °F86 %29.91 in10.0 miNW (320°)6.9 mph0.12 inRainRain
4:56 PM48.0 °F45.0 °F89 %29.94 in10.0 miNW (320°)6.9 mph0.07 inOvercast
5:11 PM48.2 °F44.6 °F87 %29.95 in10.0 miNNW (330°)5.8 mphOvercast
5:20 PM48.2 °F44.6 °F87 %29.95 in10.0 miNNW (340°)4.6 mphOvercast
5:56 PM48.0 °F45.0 °F89 %29.95 in10.0 miCalmMostly Cloudy
6:56 PM48.9 °F45.0 °F86 %29.97 in10.0 miCalmClear
7:56 PM48.0 °F46.0 °F93 %29.97 in10.0 miCalmClear
8:56 PM48.0 °F45.0 °F89 %29.99 in10.0 miCalmPartly Cloudy
9:56 PM48.0 °F45.0 °F89 %30.02 in10.0 miCalmPartly Cloudy
10:56 PM48.0 °F43.0 °F83 %30.01 in10.0 miNNW (340°)8.1 mphClear
11:56 PM46.9 °F41.0 °F80 %30.02 in10.0 miNorth (350°)5.8 mphClear
Hourly data recorded from KNDZ, located miles away from Brewton, Alabama







STORIES FROM OUR PARTNERS